STARLINK-11254, 60731

Orbit data source: Space-Track

STARLINK-11254, 60731 is a payload satellite owned by SpaceX/Seattle (US) in LEO that was launched on Wed, 28 Aug 2024 UTC via an FALCON 9 launch vehicle from the Air Force Eastern Test Range (AFETR). Payload-class satellites include a variety of spacecraft equipped with specific instruments for various scientific and technological missions. These include communications satellites like Starlink; space stations such as the ISS; scientific satellites like the Hubble; Earth observation satellites from companies like Planet Labs, Umbra, and HawkEye 360; GPS; miniature CubeSats for education and research; and military/defense satellites.

Loading next visibility...
Identifier
60731, 2024-152M
Orbit
LEO
Last TLE update
1 day ago
Origin
Manufacturer
SpaceX/Seattle
Mission
Operational Commercial Communications
Bus & Motor
STARLINK V2M, Unknown motor
Mass
730 kg wet, ~700 kg dry
Launch date (UTC)
2024-08-28 (8 months ago)
Launch vehicle
FALCON 9
Launch site
Air Force Eastern Test Range (AFETR)
Object type
Payload
Rocket body
Debris
Shape & HBR
Box + 2 Pan, 29 m
Radar Cross Section
36.964 m², Large (>1 m²)

Expand to show TLE details & history

TLE from 1 day ago
0 STARLINK-11254
1 60731U 24152M   25108.74946892  .00002715  00000-0  27258-4 0  9999
2 60731  53.1596 277.7880 0000982  31.9294 328.1783 15.69711517 37818
Epoch: 2025-04-18T17:59Z
Definitive object data (Epoch: 2025-04-18T17:59:14.114Z)
Latitude
-0.00005°
Longitude
160.8766°
Altitude
360.075 km
Speed
7.695 km/s
True Right ascension
18h 31m 09s
True Declination
0° 00' 00"
Sunlit
Object was in partial shadow at TLE epoch
Visualization TLE readout
Latitude
51.07245°
Longitude
-92.76872°
Altitude
365.497 km
Speed
7.697 km/s
Apparent Right ascension
22h 29m 13s
Apparent Declination
9° 45' 24"
Sunlit
Object is in daylight
Visualization observer readout
Local Sidereal Time
07:52:24
Azimuth
314.863° NW
Elevation
-28.489°
Doppler factor
1
Orbital elements
Apogee altitude
360.645 km
Perigee altitude
359.321 km
Semi-major axis
6,738.12 km
Eccentricity
0.0000982
Inclination
53.1596°
RAAN
277.788°
Arg. of periapsis
31.9294°
True anomaly
328.17237°
Mean anomaly
328.1783°
Eccentric anomaly
328.17533°
Mean motion
3.92405 °/min
BSTAR
0.000027258
Orbital period
91.74 mins
Loading maneuver chart data...
Loading SW <> Apogee altitude chart data...
Loading historical data...
Loading historical data...
Loading historical data...
Loading historical data...
Loading historical data...
Loading historical data...
Loading historical data...

STARLINK-11254 Visibility forecast

Observer location: undefined°, undefined°

Span
Click to sort rows by Start time (UTC) header in descending order
Start Az.
Max El. time (UTC)
Max El. Az.
Max El.
End time (UTC)
End Az.
4 mins2025-04-20 12:56:22.651Z194.038° SSW2025-04-20 12:58:22.651Z142.897° SSE27.13°2025-04-20 13:00:22.651Z78.386° E
|